Regional Weather Roundup
Issued by NWS

Home | Current Version | Previous Version | Text Only | Print | Product List | Glossary On
Versions: 1 2 3 4 5 6 7 8 9 10 11 12 13 14 15 16 17 18 19 20 21 22 23 24 25 26 27 28 29 30 31 32 33 34 35 36 37 38 39 40 41 42 43 44 45 46 47 48 49 50
000
ASUS44 KMEG 191200
RWRTN
TENNESSEE HOURLY STATE WEATHER ROUNDUP
NATIONAL WEATHER SERVICE MEMPHIS TN
600 AM CST FRI JAN 19 2018

TNZ002-004-019-021-049-052-054-088>092-191300-
WEST TENNESSEE

CITY           SKY/WX    TMP DP  RH WIND       PRES   REMARKS
MEMPHIS INTL   FAIR      25  17  72 S7        30.30R WCI  17
NWS MEMPHIS      N/A     24 N/A N/A MISG        N/A
JACKSON        FAIR      22  13  68 S8        30.29S WCI  12
DYERSBURG      FAIR      22  16  78 S5        30.28S WCI  16
$$

TNZ008-025-027-028-033-062-065-066-191300-
NORTH MIDDLE TENNESSEE

CITY           SKY/WX    TMP DP  RH WIND       PRES   REMARKS
NASHVILLE      FAIR      21  12  68 S5        30.32R WCI  15
CLARKSVILLE    FAIR      20  10  65 S3        30.29R
SMYRNA         FAIR      11   8  88 CALM      30.35R
CROSSVILLE     FAIR      18   6  59 CALM      30.27R
$$

TNZ061-075-076-078-094-096-097-191300-
SOUTH MIDDLE TENNESSEE

CITY           SKY/WX    TMP DP  RH WIND       PRES   REMARKS
WINCHESTER     CLEAR     10   9  92 CALM      30.33R
$$

TNZ017-018-042-046-047-191300-
NORTHEAST TENNESSEE

CITY           SKY/WX    TMP DP  RH WIND       PRES   REMARKS
TRI CITIES     FAIR      10   9  95 CALM      30.29S
$$

TNZ012-013-036-069-073-074-191300-
CENTRAL EAST TENNESSEE

CITY           SKY/WX    TMP DP  RH WIND       PRES   REMARKS
KNOXVILLE      FAIR      15  12  88 CALM      30.32R
OAK RIDGE      MIX PCPN  13  11  92 CALM      30.35R
$$

TNZ083-085-099-191300-
SOUTHEAST TENNESSEE

CITY           SKY/WX    TMP DP  RH WIND       PRES   REMARKS
CHATTANOOGA    FAIR      17  13  84 CALM      30.35R
$$

SKY/WX REPORTED AS FAIR MEANS FEW OR NO CLOUDS BELOW
12 THOUSAND FEET.





USA.gov is the U.S. government's official web portal to all federal, state and local government web resources and services.